Regional Weather Roundup
Issued by NWS

Home | Current Version | Previous Version | Graphics & Text | Print | Product List | Glossary On
Versions: 1 2 3 4 5 6 7 8 9 10 11 12 13 14 15 16 17 18 19 20 21 22 23 24 25 26 27 28 29 30 31 32 33 34 35 36 37 38 39 40 41 42 43 44 45 46 47 48 49 50
430
ASUS43 KBIS 220220
RWRND

NORTH DAKOTA REGIONAL WEATHER ROUNDUP
NATIONAL WEATHER SERVICE BISMARCK ND
900 PM CDT THU MAY 21 2015

NOTE: "FAIR" INDICATES FEW OR NO CLOUDS BELOW 12,000 FEET WITH NO
SIGNIFICANT WEATHER AND/OR OBSTRUCTIONS TO VISIBILITY.


NDZ001>003-009>011-017-220300-
NORTHWEST NORTH DAKOTA

CITY           SKY/WX    TMP DP  RH WIND       PRES   REMARKS
WILLISTON      CLEAR     67  33  28 E8        30.08R
MINOT          CLEAR     64  39  39 NE6       30.10R
MINOT AFB      CLEAR     68  35  29 NE7       30.09S
$$

NDZ018>021-031>035-040>046-220300-
SOUTHWEST NORTH DAKOTA

CITY           SKY/WX    TMP DP  RH WIND       PRES   REMARKS
BISMARCK       MOCLDY    66  40  38 NE8       30.10R
DICKINSON      CLEAR     60  34  37 SE9       30.09S
GARRISON         N/A     67  36  31 E6        30.10R
HETTINGER ARPT CLEAR     59  35  40 SE7       30.13S
$$

NDZ004>008-012>016-024-026-027-054-220300-
NORTHEAST NORTH DAKOTA

CITY           SKY/WX    TMP DP  RH WIND       PRES   REMARKS
GRAND FORKS    CLEAR     58  40  51 N5        30.10S
GRND FRKS AFB  CLEAR     60  37  43 NE5       30.11S
DEVILS LAKE    CLEAR     63  30  29 NE3       30.11S
$$

NDZ022-023-025-028>030-036>039-047>053-220300-
SOUTHEAST NORTH DAKOTA

CITY           SKY/WX    TMP DP  RH WIND       PRES   REMARKS
FARGO          CLEAR     59  43  55 NW8       30.10R
JAMESTOWN      CLEAR     61  43  51 NE8       30.10S
$$




USA.gov is the U.S. government's official web portal to all federal, state and local government web resources and services.